Погода в Дмитриевском

Россия / Ставропольский край     45°48′28″N   41°53′33″E
темп.,
°C
ветер,
м/с
пор.,
м/с
влажн.,
%
обл.,
%
осадки,
мм/ч
давл.,
гПа
погр.,
м
18 января, пн
пн1800:00−2всв4792100 0.9 1006398
03:00−3в71194100 2.8 1007392
06:00−3вюв4795100 1.1 1009268
09:00−4зюз71192100 1.3 1012547
12:00−5з71090100 0.1 1013541
15:00−4зсз6989100 0.2 1014629
18:00−5з5890100 0.1 1016616
21:00−6з4890100 0.1 1017575
19 января, вт
вт1900:00−7зсз4992100 0.0 1019340
03:00−7з3893100 0.0 1020348
06:00−9зюз129659 0.0 102021
09:00−7в119471 0.0 102034
12:00−3ю3783100 0.2 1020553
15:00−3з61175100 0.3 10191157
18:00−6зюз4889100 0.0 1022397
21:00−8зюз249699 0.1 1023125
20 января, ср
ср2000:00−8зсз3694100 0.1 1024291
03:00−11зсз239496 0.2 102479
06:00−12зсз239332 0.0 102552
09:00−10зсз129165 0.0 1026110
12:00−7з2484100 0.0 1026357
15:00−6сз3386100 0.0 1025444
18:00−9с1293100 0.0 102821
21:00−9в0094100 0.0 102921
21 января, чт
чт2100:00−9зюз119692 0.1 102921
03:00−10зсз009692 0.1 103021
06:00−10вюв119692 0.0 103021
09:00−8в229493 0.1 103177
12:00−5в118790 0.1 1030229
15:00−3вюв128585 0.1 1029330
18:00−4вюв239289 0.0 103030
21:00−2ююв239794 0.5 103095
22 января, пт
пт2200:00−3ююз239270 0.0 102926
03:00−2ююз338775 0.0 102938
06:00−2юз337897 0.0 102842
09:00−1ююз337478 0.0 102941
12:00+2ююз12840 0.0 102891
15:00+3ююв12850 0.0 102722
18:000ююв23750 0.0 102722
21:000юв23710 0.0 102722